Weather History for Zadar, Croatia

Change the Weather History Date:

Friday, July 19, 2013

  Actual Average Record
Temperature  
Mean Temperature 75 °F -  
Max Temperature 89 °F - - ()
Min Temperature 61 °F - - ()
Cooling Degree Days 10    
Growing Degree Days 25 (Base 50)    
Moisture  
Dew Point 59 °F    
Average Humidity 57    
Maximum Humidity 88    
Minimum Humidity 26    
Precipitation  
Precipitation 0.00 in - - ()
Sea Level Pressure  
Sea Level Pressure 30.02 in    
Wind  
Wind Speed 4 mph ()    
Max Wind Speed 16 mph    
Max Gust Speed 20 mph    
Visibility 9.5 miles    
Events Thunderstorm    
T = Trace of Precipitation, MM = Missing Value Source: Averaged Metar Reports

Daily Weather History Graph

Daily Weather History Graph

Search for Another Location

Airport:

Trip Planner

Search our weather history database for the weather conditions in past years. The results will help you decide how hot, cold, wet, or windy it might be!

Date:

Astronomy

Jul. 19, 2013 Rise Set
Actual Time 5:32 AM CEST 8:36 PM CEST
Civil Twilight 4:58 AM CEST 9:10 PM CEST
Nautical Twilight 4:13 AM CEST 9:54 PM CEST
Astronomical Twilight 3:20 AM CEST 10:47 PM CEST
Moon 5:19 PM CEST (7/19) 1:59 AM CEST (7/19)
Length of Visible Light 16h 12m
Length of Day
15h 03m
Waxing Gibbous, 84% of the Moon is Illuminated
Jul 19
Waxing Gibbous
Jul 22
Full
Jul 29
Last Quarter
Aug 6
New
Aug 14
First Quarter

Hourly Weather History & Observations

Time (CEST) Temp. Heat Index Dew Point Humidity Pressure Visibility Wind Dir Wind Speed Gust Speed Precip Events Conditions
12:00 AM 68.0 °F - 59.0 °F 73% 30.06 in - SSE 2.3 mph - N/A   Clear
12:30 AM 68.0 °F - 59.0 °F 73% 30.06 in - Variable 1.2 mph - N/A   Clear
1:00 AM 66.2 °F - 59.0 °F 78% 30.04 in - Calm Calm - N/A   Clear
1:30 AM 66.2 °F - 59.0 °F 78% 30.04 in - SE 4.6 mph - N/A   Clear
2:00 AM 65 °F - 58 °F 73% 30.05 in 19 mi ESE 4.5 mph - -  
2:00 AM 64.4 °F - 59.0 °F 83% 30.04 in - ESE 3.5 mph - N/A   Clear
2:30 AM 64.4 °F - 59.0 °F 83% 30.04 in - ESE 3.5 mph - N/A   Clear
3:00 AM 64.4 °F - 57.2 °F 77% 30.04 in - SSE 3.5 mph - N/A   Clear
3:30 AM 62.6 °F - 57.2 °F 82% 30.04 in - SSE 4.6 mph - N/A   Clear
4:00 AM 64.4 °F - 57.2 °F 77% 30.01 in - SE 4.6 mph - N/A   Clear
4:30 AM 62.6 °F - 57.2 °F 82% 30.01 in - SE 4.6 mph - N/A   Clear
5:00 AM 62 °F - 57 °F 79% 30.03 in 19 mi SE 4.5 mph - -  
5:00 AM 60.8 °F - 57.2 °F 88% 30.01 in - ESE 4.6 mph - N/A   Clear
5:30 AM 62.6 °F - 57.2 °F 82% 30.04 in - ESE 3.5 mph - N/A   Clear
6:00 AM 62.6 °F - 57.2 °F 82% 30.04 in - SE 4.6 mph - N/A   Clear
6:30 AM 64.4 °F - 57.2 °F 77% 30.04 in - SE 4.6 mph - N/A   Clear
7:00 AM 68.0 °F - 59.0 °F 73% 30.04 in - SE 3.5 mph - N/A   Clear
7:30 AM 71.6 °F - 60.8 °F 69% 30.04 in - ESE 3.5 mph - N/A   Clear
8:00 AM 75 °F - 64 °F 60% 30.03 in 16 mi ESE 2.2 mph - -   Scattered Clouds
8:00 AM 77.0 °F - 64.4 °F 65% 30.04 in - Variable 2.3 mph - N/A   Clear
8:30 AM 77.0 °F - 66.2 °F 69% 30.04 in - Variable 2.3 mph - N/A   Clear
9:00 AM 78.8 °F - 64.4 °F 61% 30.04 in - Variable 2.3 mph - N/A   Clear
9:30 AM 82.4 °F 83.4 °F 62.6 °F 51% 30.04 in - Variable 1.2 mph - N/A   Clear
10:00 AM 82.4 °F 82.9 °F 60.8 °F 48% 30.04 in - SSW 3.5 mph - N/A   Clear
10:30 AM 86.0 °F 86.1 °F 60.8 °F 43% 30.04 in - Variable 3.5 mph - N/A   Clear
11:00 AM 85 °F - 60 °F 32% 30.03 in 16 mi North 4.5 mph - -   Scattered Clouds
11:00 AM 84.2 °F 83.8 °F 59.0 °F 42% 30.04 in - Variable 4.6 mph - N/A   Clear
11:30 AM 87.8 °F 87.6 °F 60.8 °F 40% 30.01 in - Variable 3.5 mph - N/A   Clear
12:00 PM 87.8 °F 87.1 °F 59.0 °F 38% 30.01 in - WNW 9.2 mph - N/A   Clear
12:30 PM 86.0 °F 86.1 °F 60.8 °F 43% 30.01 in - West 10.4 mph - N/A   Clear
1:00 PM 87.8 °F 87.6 °F 60.8 °F 40% 30.01 in 6.2 mi WSW 9.2 mph - N/A   Partly Cloudy
1:30 PM 87.8 °F 87.1 °F 59.0 °F 38% 30.01 in 6.2 mi West 10.4 mph - N/A   Partly Cloudy
2:00 PM 89 °F - 59 °F 26% 29.99 in 12 mi West 11.2 mph - -   Scattered Clouds
2:00 PM 87.8 °F 87.1 °F 59.0 °F 38% 30.01 in 6.2 mi West 11.5 mph - N/A   Partly Cloudy
2:30 PM 87.8 °F 87.1 °F 59.0 °F 38% 30.01 in 6.2 mi West 12.7 mph - N/A Thunderstorm Partly Cloudy
3:00 PM 87.8 °F 87.1 °F 59.0 °F 38% 29.98 in 6.2 mi West 12.7 mph - N/A   Partly Cloudy
3:30 PM 87.8 °F 86.5 °F 57.2 °F 35% 29.98 in 6.2 mi West 11.5 mph - N/A   Partly Cloudy
4:00 PM 87.8 °F 86.5 °F 57.2 °F 35% 29.98 in 6.2 mi WNW 10.4 mph - N/A   Partly Cloudy
4:30 PM 87.8 °F 87.1 °F 59.0 °F 38% 29.98 in 6.2 mi NW 11.5 mph - N/A   Partly Cloudy
5:00 PM 88 °F - 58 °F 26% 29.98 in 16 mi WNW 8.9 mph - - Thunderstorm Thunderstorm
5:00 PM 89.6 °F 88.9 °F 59.0 °F 36% 29.98 in 6.2 mi Variable 6.9 mph 19.6 mph N/A Thunderstorm Thunderstorm
5:30 PM 75.2 °F - 59.0 °F 57% 30.01 in 6.2 mi ESE 16.1 mph - N/A Thunderstorm Mostly Cloudy
6:00 PM 77.0 °F - 59.0 °F 54% 30.01 in 6.2 mi East 12.7 mph - N/A   Partly Cloudy
6:30 PM 80.6 °F 80.8 °F 57.2 °F 45% 29.98 in 6.2 mi East 11.5 mph - N/A   Partly Cloudy
7:00 PM 80.6 °F 81.1 °F 59.0 °F 48% 29.98 in 6.2 mi SE 8.1 mph - N/A   Partly Cloudy
7:30 PM 80.6 °F 80.8 °F 57.2 °F 45% 29.98 in 6.2 mi SE 6.9 mph - N/A   Partly Cloudy
8:00 PM 81 °F - 57 °F 34% 29.99 in 16 mi South 2.2 mph - -   Partly Cloudy
8:00 PM 80.6 °F 80.8 °F 57.2 °F 45% 29.98 in 6.2 mi South 3.5 mph - N/A   Partly Cloudy
8:30 PM 78.8 °F - 59.0 °F 51% 29.98 in 6.2 mi SW 4.6 mph - N/A   Partly Cloudy
9:00 PM 75.2 °F - 59.0 °F 57% 29.98 in - SW 3.5 mph - N/A   Clear
9:30 PM 73.4 °F - 59.0 °F 61% 30.01 in - Variable 1.2 mph - N/A   Clear
10:00 PM 71.6 °F - 59.0 °F 64% 30.01 in - WSW 4.6 mph - N/A   Clear
10:30 PM 71.6 °F - 59.0 °F 64% 29.98 in - NNE 3.5 mph - N/A   Clear
11:00 PM 70 °F - 59 °F 59% 30.00 in 16 mi NE 2.2 mph - -   Scattered Clouds
11:00 PM 69.8 °F - 59.0 °F 68% 30.01 in - NE 2.3 mph - N/A   Clear
11:30 PM 68.0 °F - 59.0 °F 73% 30.01 in - Variable 2.3 mph - N/A   Clear